This is the latest recevied weather packets stored in our database for station/object WA4TPR. If no packets are shown the sender has not sent any weather packets the latest 10 day(s).
| Time | Temp. | Humidity | Pressure | Rain* | Wind** | Luminosity | Snow |
|---|---|---|---|---|---|---|---|
| 1777937045 | 23.89° C | 78% | 1017.8 hPa | 0 mm | - | 33 W/m² | - |
| 1777936742 | 24.44° C | 78% | 1017.9 hPa | 0 mm | - | 30 W/m² | - |
| 1777936438 | 24.44° C | 78% | 1017.9 hPa | 0 mm | - | 38 W/m² | - |
| 1777936135 | 24.44° C | 77% | 1018.1 hPa | 0 mm | - | 40 W/m² | - |
| 1777935832 | 25° C | 77% | 1017.8 hPa | 0 mm | - | 43 W/m² | - |
| 1777935531 | 25° C | 76% | 1018 hPa | 0 mm | - | 49 W/m² | - |
| 1777935227 | 25° C | 75% | 1017.7 hPa | 0 mm | - | 50 W/m² | - |
| 1777934924 | 25° C | 74% | 1017.7 hPa | 0 mm | - | 49 W/m² | - |
| 1777934621 | 25° C | 74% | 1017.9 hPa | 0 mm | - | 52 W/m² | - |
| 1777934318 | 25° C | 74% | 1017.8 hPa | 0 mm | - | 55 W/m² | - |
| 1777934013 | 25.56° C | 73% | 1018 hPa | 0 mm | - | 42 W/m² | - |
| 1777933710 | 26.11° C | 72% | 1017.7 hPa | 0 mm | - | 136 W/m² | - |
| 1777933407 | 26.11° C | 73% | 1017.7 hPa | 0 mm | - | 128 W/m² | - |
| 1777933106 | 26.11° C | 72% | 1017.8 hPa | 0 mm | - | 327 W/m² | - |
| 1777932802 | 26.11° C | 73% | 1017.9 hPa | 0 mm | - | 255 W/m² | - |
| 1777932499 | 25.56° C | 72% | 1017.9 hPa | 0 mm | - | 182 W/m² | - |
| 1777932196 | 26.11° C | 72% | 1017.9 hPa | 0 mm | - | 155 W/m² | - |
| 1777931893 | 26.11° C | 72% | 1017.8 hPa | 0 mm | - | 148 W/m² | - |
| 1777931589 | 26.11° C | 72% | 1017.7 hPa | 0 mm | - | 157 W/m² | - |
| 1777931285 | 26.11° C | 73% | 1017.7 hPa | 0 mm | - | 327 W/m² | - |
| 1777930983 | 25.56° C | 72% | 1017.5 hPa | 0 mm | - | 147 W/m² | - |
| 1777930679 | 26.11° C | 72% | 1017.7 hPa | 0 mm | - | 211 W/m² | - |
| 1777930375 | 26.11° C | 71% | 1017.5 hPa | 0 mm | - | 281 W/m² | - |
| 1777930073 | 26.11° C | 71% | 1017.8 hPa | 0 mm | - | 157 W/m² | - |
| 1777929769 | 26.11° C | 72% | 1017.8 hPa | 0 mm | - | 142 W/m² | - |
* Rain latest hour (hover to see other rain measurements)
** Current wind speed in m/s (hover to see current wind gust speed)